RH
76 73 65 60 54 48 42 36 37 43 48 49 44 44 46 53 57 59 69 72 68 56 54 63 78 95 97 85 56 27 16 18 25 32 38 46 73 96 93 92 95 95 85 74 65 65 72 64 56 48 47 51 46 46 46 43 46 52 55 57 56 58 62 63 65 53 45 42 32 25 19 18 16 16 16 17 22 22 22 21 21 21 20 21 25
80 70 55 45 44 41 34 32 38 44 49 49 47 51 57 61 65 74 83 84 84 81 83 88 93 89 69 46 24 16 18 23 32 42 50 63 88 102 103 104 99 91 76 73 76 80 88 80 68 55 60 75 65 56 57 55 55 61 66 73 69 61 64 69 74 66 57 58 52 43 36 34 31 29 25 19 21 22 24 25 24 24 25 25 26
77 62 45 35 34 34 31 38 50 54 53 51 51 58 64 66 70 76 83 90 92 96 103 93 71 46 28 18 15 20 24 32 45 60 70 78 87 93 97 95 87 79 68 73 87 95 101 95 81 66 70 81 74 66 66 67 66 70 74 81 85 79 79 79 79 73 63 62 61 58 53 50 49 49 44 30 21 18 23 27 27 29 29 29 29
56 47 37 31 30 31 35 47 55 52 51 50 49 55 61 64 68 72 80 86 90 99 93 60 29 16 14 14 20 28 34 47 61 73 78 76 75 75 74 70 64 58 58 74 98 107 102 98 88 77 77 78 80 80 73 73 75 78 80 84 92 92 97 96 84 71 61 58 58 63 65 63 63 64 61 49 34 18 20 28 27 29 32 32 32
38 33 30 27 25 27 38 48 47 43 45 46 44 47 53 61 70 78 85 93 101 93 58 23 12 13 14 18 29 38 46 58 69 76 73 67 62 56 48 42 36 33 38 50 77 98 93 89 89 88 88 89 93 93 80 79 83 82 89 95 98 99 103 104 87 64 52 53 52 57 65 68 69 71 71 66 55 31 19 26 28 27 30 35 34
42 33 28 22 21 27 41 44 39 41 44 42 42 45 56 73 84 93 99 100 87 52 20 10 12 15 16 25 38 44 54 64 70 68 57 48 38 32 27 24 22 22 24 26 44 64 63 65 87 101 99 98 98 101 94 91 94 92 99 102 102 103 102 102 92 73 60 61 59 54 58 65 67 71 75 75 71 51 28 23 27 27 27 33 36
44 33 24 18 22 33 42 38 38 42 41 43 45 48 62 86 98 97 89 70 39 15 10 12 16 16 18 32 43 48 59 63 57 43 32 27 23 23 22 22 22 22 23 25 35 39 38 43 65 83 94 103 98 101 104 102 103 99 104 105 102 102 99 101 98 93 87 82 76 61 58 65 64 69 76 78 79 70 48 30 23 25 26 29 35
34 27 19 17 23 34 38 33 36 40 42 51 50 45 52 71 78 66 47 26 11 9 13 16 19 16 21 39 45 51 56 46 33 24 23 24 24 25 24 25 25 25 24 26 32 33 38 40 38 40 60 94 102 101 102 103 103 102 105 101 101 103 102 102 100 101 101 96 85 68 66 66 60 67 77 76 81 83 68 47 27 18 24 26 31
25 19 14 16 20 28 32 30 36 40 47 53 45 36 38 45 41 27 16 10 9 13 17 22 19 14 27 42 45 48 41 28 25 27 29 29 30 31 30 30 27 27 25 25 28 29 34 36 35 32 34 60 93 104 101 101 99 99 100 97 100 105 104 101 101 102 100 99 91 80 76 66 56 63 76 74 77 90 82 65 43 18 18 26 27
16 13 11 14 17 23 28 32 39 42 45 43 33 28 28 27 19 12 11 10 12 19 24 22 15 17 30 37 39 37 28 28 35 38 40 41 43 42 39 34 31 30 26 25 25 25 34 40 38 38 29 36 73 98 100 98 92 88 92 97 100 102 102 102 105 100 92 94 94 90 82 69 62 63 75 76 73 90 93 77 63 37 16 20 27
12 10 10 14 18 23 29 38 41 39 37 30 23 21 19 15 11 10 10 11 19 25 22 16 13 19 24 26 29 29 31 41 46 47 50 53 54 53 47 38 33 31 27 26 25 27 47 58 40 27 25 30 61 90 98 97 91 89 95 101 100 101 100 98 97 88 82 89 96 99 92 81 77 71 77 83 74 84 99 89 77 63 33 16 24
9 8 12 16 21 27 34 40 39 34 28 21 17 14 12 11 10 11 11 17 25 22 14 12 14 17 20 21 25 30 38 47 50 51 51 52 56 58 54 44 35 31 29 27 26 27 47 67 50 30 25 30 52 76 86 90 92 93 98 99 96 94 89 83 82 81 83 87 94 102 102 98 94 81 74 83 80 81 100 104 90 81 60 28 18
8 10 15 19 24 31 37 40 36 27 20 15 11 10 11 11 11 11 14 23 25 17 12 13 16 19 23 23 25 31 38 44 46 46 44 44 49 55 57 50 39 32 30 29 27 26 42 69 69 50 38 36 45 57 67 77 85 86 87 86 79 74 71 67 67 76 87 92 97 102 105 105 104 93 78 78 83 81 89 105 105 93 81 52 22
9 12 15 20 26 31 36 38 29 18 14 9 8 11 12 10 12 13 18 27 24 16 15 16 18 21 24 25 27 31 34 38 40 40 38 36 40 50 61 56 41 33 31 30 29 27 38 64 75 68 63 63 67 73 76 78 77 72 69 65 57 51 47 45 44 48 56 65 74 86 98 100 100 99 94 86 85 87 85 96 110 105 95 75 38
10 12 15 22 28 28 29 28 18 11 10 8 11 12 10 12 13 14 22 30 29 23 19 19 20 22 26 27 28 30 32 34 35 36 34 33 38 50 67 65 44 33 33 31 31 32 35 46 55 59 65 70 74 76 72 66 58 51 48 44 41 38 37 35 35 35 34 34 36 47 65 81 94 99 100 95 93 98 96 97 107 112 105 94 63
9 12 17 23 24 21 18 16 10 8 9 10 12 11 12 14 11 15 26 34 33 27 21 20 22 25 30 30 29 30 31 31 30 31 32 33 39 52 73 72 48 35 34 32 32 37 37 35 37 39 44 47 49 49 46 46 44 42 42 41 40 40 39 38 36 36 35 34 28 25 30 49 87 105 101 98 98 100 102 100 101 108 107 102 85
9 14 19 19 16 14 12 9 8 8 9 11 11 12 13 11 11 18 28 34 31 23 21 23 25 28 32 32 30 29 29 28 27 29 31 34 40 52 69 69 51 38 34 33 31 36 40 35 34 37 39 41 42 43 44 46 46 45 47 47 46 42 41 40 40 39 35 35 31 26 20 25 62 101 104 99 100 97 99 102 102 106 105 101 98
12 16 16 13 12 10 8 7 8 9 10 11 12 12 11 11 16 22 29 32 24 20 23 26 29 31 32 32 31 29 28 27 27 29 32 35 42 53 60 55 47 41 35 35 30 31 40 40 40 43 45 47 47 47 45 45 46 46 51 53 50 49 47 42 42 42 39 36 31 26 23 18 34 80 103 100 102 100 99 105 105 104 103 101 102
14 14 12 11 10 8 8 8 9 9 10 12 12 10 10 14 18 22 28 25 19 22 28 29 32 35 34 32 31 30 30 30 31 32 33 37 48 55 51 39 40 44 38 38 35 29 34 41 45 46 47 46 45 45 43 42 44 44 49 51 54 59 58 53 50 48 44 38 35 28 25 22 20 57 98 101 100 103 103 104 104 104 104 103 103
13 10 10 9 8 8 8 9 10 10 11 11 9 9 13 17 18 21 24 21 22 27 30 32 39 44 42 36 32 32 32 33 33 32 35 44 54 51 40 32 36 44 43 43 43 35 31 35 39 43 45 46 45 45 44 43 43 44 47 49 55 62 61 63 61 56 53 44 40 34 27 28 23 44 90 103 98 100 101 100 101 104 105 103 103
10 9 9 8 7 7 8 10 10 10 11 9 8 12 16 17 18 20 22 23 28 31 32 35 43 47 45 42 39 38 37 36 37 39 44 49 47 37 32 35 38 46 48 47 49 46 40 38 38 39 42 46 47 46 46 46 47 48 48 51 57 62 60 63 66 63 62 53 46 43 35 32 28 37 71 99 104 95 91 98 100 100 102 100 101
7 8 7 6 6 7 10 10 11 12 10 8 9 13 15 17 18 22 25 29 32 33 34 37 40 40 40 42 42 43 44 44 45 47 46 40 32 29 41 50 47 53 58 52 50 52 51 51 50 48 48 51 51 51 54 56 58 58 56 58 62 64 61 59 64 66 68 65 55 50 45 39 34 32 46 75 100 96 86 91 97 98 100 100 99
6 7 5 5 6 8 10 10 12 12 8 8 10 12 15 18 22 26 29 32 35 35 36 37 38 38 39 40 41 43 43 44 45 44 37 29 26 28 50 69 66 66 73 67 55 53 53 53 54 53 53 54 54 57 61 65 72 77 74 74 73 67 62 57 57 63 70 74 68 61 55 48 43 39 35 42 67 87 90 88 87 91 97 100 99
6 7 6 7 8 9 10 12 12 9 8 9 10 12 18 22 26 30 32 34 35 34 36 38 40 41 41 40 40 39 40 45 44 40 32 25 26 26 38 63 75 76 78 73 60 55 53 49 48 45 45 47 51 56 63 71 79 84 84 84 80 67 60 57 52 54 62 70 75 75 67 60 54 48 42 35 39 59 80 87 84 84 84 92 101
9 9 9 8 8 10 12 14 10 8 9 10 12 17 21 25 29 31 33 34 34 35 37 39 41 41 38 38 41 46 51 53 42 34 30 25 27 27 26 35 53 63 62 59 55 55 55 53 50 44 43 46 49 55 65 74 77 81 82 78 77 71 63 58 55 53 55 60 69 77 77 72 67 58 53 47 38 37 50 65 76 86 84 84 93
13 12 9 8 10 12 13 12 9 8 9 13 18 21 25 29 31 32 34 35 36 37 36 36 36 35 31 31 42 52 53 42 32 30 29 27 29 30 27 23 30 43 50 51 52 53 53 54 53 48 46 47 50 55 64 68 69 77 76 67 67 70 66 62 60 58 56 56 58 70 79 79 74 69 66 61 54 45 38 41 53 72 87 87 83
16 12 9 9 12 14 12 9 8 8 12 20 24 26 29 32 33 36 38 36 34 30 28 29 30 29 24 28 39 43 37 29 28 30 30 33 35 33 29 24 21 29 40 46 49 51 51 50 49 48 48 50 53 54 57 57 59 67 67 59 57 57 57 58 59 58 57 55 53 61 71 77 76 76 77 73 73 67 51 45 45 49 66 79 83
16 12 9 11 14 12 10 8 8 10 18 25 28 30 32 34 38 39 35 29 24 21 21 24 26 27 27 33 37 32 29 29 28 30 33 37 36 32 29 25 21 23 29 33 37 42 47 50 50 49 50 52 55 53 51 50 50 53 56 52 47 44 43 45 50 52 53 52 52 55 61 70 75 80 80 74 81 84 67 58 59 58 58 64 79
15 11 10 13 13 9 9 8 9 16 24 29 30 32 35 37 36 30 24 20 19 18 20 22 27 32 35 36 33 28 28 30 33 35 32 30 26 24 23 22 21 21 22 21 20 24 33 43 49 51 50 51 53 52 50 50 48 46 47 45 40 38 37 39 43 46 48 49 48 50 54 59 64 74 77 73 80 86 78 73 77 78 71 67 72
14 10 11 12 10 8 9 8 12 22 27 29 32 34 34 31 26 21 21 21 20 19 21 25 31 35 35 32 29 27 26 30 37 33 23 19 18 18 17 17 16 15 14 13 11 13 20 28 37 42 43 43 46 50 51 51 49 41 37 41 40 37 37 38 41 44 49 51 50 50 51 53 55 60 65 69 73 75 83 89 86 78 68 65 72
12 10 11 9 8 8 8 11 18 24 26 30 31 28 25 22 21 22 24 24 22 20 22 26 29 30 29 29 30 27 25 28 29 24 19 18 17 16 16 15 14 13 11 10 10 12 19 26 31 36 40 44 45 47 45 37 33 28 23 31 39 40 39 39 42 46 50 54 56 56 53 53 56 58 58 59 60 64 77 83 79 79 72 59 59
11 11 9 8 8 8 10 16 21 24 27 28 24 21 20 21 23 25 26 25 21 19 21 22 23 24 24 26 28 26 25 25 23 21 19 18 19 19 19 17 15 14 13 12 11 10 14 22 29 35 37 39 37 30 23 16 16 17 16 20 32 39 41 42 44 47 51 55 56 51 44 41 47 55 58 58 56 53 59 64 67 79 85 74 60
12 11 8 8 8 9 14 19 22 26 27 24 20 20 21 23 23 23 23 21 20 20 20 21 21 22 23 24 25 25 25 24 23 22 20 21 22 22 21 20 18 16 16 17 20 21 18 16 17 20 22 20 17 13 12 16 20 22 20 19 27 36 40 44 47 48 50 48 43 33 26 23 27 34 41 49 53 51 50 55 61 70 82 87 80
12 10 9 9 10 13 17 20 24 27 24 20 20 21 21 21 19 19 19 18 19 20 20 21 22 22 23 23 24 25 25 24 23 22 22 23 23 23 23 22 21 19 18 21 31 44 48 40 26 13 8 10 11 17 26 34 38 38 32 26 27 33 39 45 47 44 36 28 25 20 17 17 19 21 23 28 38 48 54 56 55 57 74 90 86
12 10 10 11 13 15 18 23 27 25 21 20 21 20 18 17 18 18 18 17 19 20 20 21 22 23 24 24 25 25 24 24 24 23 23 23 23 25 26 25 23 22 21 20 26 38 48 52 44 26 16 17 21 32 46 55 56 52 45 37 35 38 43 48 46 36 21 14 16 15 15 17 18 19 19 20 24 36 47 55 54 46 64 88 82
12 10 12 14 15 17 22 27 26 22 20 21 20 18 17 18 20 19 18 18 18 19 20 21 23 25 26 26 26 25 25 25 24 24 23 24 24 25 26 26 24 23 23 22 20 22 25 29 34 34 32 33 37 43 51 58 62 62 57 50 45 46 51 54 50 39 22 12 13 14 15 16 17 17 18 19 20 25 32 42 51 47 54 68 71
12 13 15 15 18 22 27 27 23 21 21 21 18 16 17 18 19 18 18 17 17 18 20 22 24 26 28 28 28 27 26 26 25 25 25 25 25 25 26 25 23 23 24 23 23 22 21 20 20 23 26 28 31 33 34 37 44 53 59 58 55 52 49 45 44 42 32 18 12 13 14 15 16 16 16 18 17 19 21 24 34 43 48 51 55
13 15 16 17 22 27 28 25 21 20 20 19 16 16 16 17 18 17 17 17 17 19 20 22 24 27 29 29 29 28 28 28 27 26 27 27 26 26 25 24 24 23 23 24 24 24 23 23 22 21 20 20 20 19 20 20 21 27 36 41 43 39 32 28 27 30 30 22 14 13 14 15 15 15 15 17 17 17 18 18 20 27 38 46 49
14 17 18 23 26 27 26 23 21 20 19 17 15 15 16 17 17 17 17 17 18 19 21 22 24 26 29 29 28 28 29 29 29 28 29 28 26 26 25 25 24 23 24 24 24 25 24 24 24 23 22 21 20 19 18 18 17 17 18 20 22 21 18 18 18 17 20 18 14 13 15 15 15 15 15 15 17 18 18 18 17 18 23 31 42
16 18 22 27 27 26 24 22 20 20 18 16 15 15 15 16 17 17 17 17 17 19 21 23 24 26 27 27 27 28 29 29 29 29 29 29 27 26 25 24 24 24 24 24 24 24 24 24 24 23 22 21 20 20 19 18 17 17 16 16 15 15 15 14 14 14 14 14 13 13 14 15 15 15 16 16 16 17 18 18 18 17 18 19 25
18 22 26 27 26 25 23 21 20 19 17 16 15 15 15 16 17 17 17 17 17 18 20 23 24 26 27 26 25 26 28 29 29 29 29 29 27 26 25 24 24 24 23 25 25 25 24 24 24 23 22 21 20 19 18 17 17 16 16 16 15 15 15 14 14 14 13 13 13 13 14 15 15 15 15 16 16 17 17 17 18 18 18 18 18
21 25 27 27 26 24 22 21 19 18 17 16 15 14 15 16 16 17 17 17 18 18 20 23 24 26 27 26 25 26 27 28 28 29 29 28 27 27 26 25 25 24 24 25 25 26 25 24 24 23 22 20 20 19 18 17 16 16 15 15 15 15 15 14 14 14 14 14 13 14 14 14 15 15 15 16 16 17 17 17 18 18 18 18 18
24 27 28 28 27 24 22 20 19 18 17 16 15 14 14 15 16 17 18 18 18 18 19 22 25 27 27 26 26 26 27 27 28 28 28 28 28 28 27 27 26 25 25 25 26 26 25 25 23 22 21 20 19 18 17 17 16 16 16 15 15 15 15 15 15 15 14 14 14 14 14 14 15 15 15 16 17 17 17 18 18 18 19 18 18
25 28 29 30 30 28 25 21 19 18 17 16 15 15 15 15 16 16 18 18 18 18 19 22 26 28 28 28 26 26 27 27 28 28 29 28 29 29 30 31 29 27 25 25 26 26 25 24 23 21 20 19 19 18 17 16 16 15 16 16 16 15 15 15 15 15 15 15 15 15 15 15 15 15 15 15 16 17 17 18 19 19 19 19 18
24 28 30 31 30 31 32 28 22 18 18 17 15 15 15 15 16 16 17 19 19 19 19 21 26 29 30 28 27 27 28 28 28 29 30 31 32 31 33 37 35 28 25 25 25 24 23 22 21 20 19 19 19 18 18 17 16 16 16 16 16 16 16 16 16 16 16 15 15 15 15 15 15 15 16 16 16 16 17 18 19 19 19 20 20
24 28 30 31 30 31 39 40 30 21 18 17 16 15 16 15 16 17 17 18 19 19 19 20 25 30 31 29 28 27 28 28 29 31 35 36 37 36 38 41 39 32 26 25 24 23 22 22 21 20 19 20 19 19 18 17 17 17 17 16 16 16 16 16 16 16 16 16 16 16 16 16 16 16 15 16 16 16 17 18 19 19 19 20 20
24 29 31 32 32 32 41 47 40 28 20 18 17 16 16 16 16 17 17 18 18 19 19 19 23 29 31 30 28 27 27 28 29 33 37 38 40 43 45 43 38 34 29 26 25 24 23 22 21 21 20 20 19 19 18 18 18 17 17 17 17 17 17 17 16 16 16 16 16 16 16 16 16 17 17 17 17 17 18 18 19 19 19 20 20
24 30 33 34 34 35 43 50 45 34 24 19 17 16 17 16 17 17 17 18 18 19 20 19 21 28 32 31 29 28 26 28 30 32 34 36 39 42 42 37 33 32 30 27 26 25 24 24 23 22 21 21 20 20 20 19 19 18 18 18 18 18 18 18 17 17 17 17 17 16 16 17 16 17 17 17 18 18 18 19 19 20 20 21 21
22 31 36 36 36 38 45 51 48 39 29 22 19 17 17 17 17 17 18 19 18 18 19 19 20 25 31 32 31 30 28 28 30 31 31 32 34 35 34 31 30 31 29 28 27 26 26 25 24 23 23 23 22 22 22 22 21 21 21 20 20 20 20 20 20 19 19 18 18 18 18 18 18 18 18 18 19 18 19 19 20 21 22 22 24
19 27 34 35 33 37 45 49 49 43 33 25 21 18 18 18 17 18 19 20 19 19 19 20 20 23 29 33 32 31 29 29 30 31 30 29 29 30 30 29 29 29 29 28 28 28 27 26 26 26 25 25 25 25 24 24 24 23 23 23 23 23 23 24 24 23 23 22 21 21 20 20 20 20 20 19 20 19 19 20 20 21 23 24 25
18 22 29 31 29 34 40 44 48 46 38 29 24 21 19 19 18 18 20 21 20 19 19 20 20 21 26 31 32 32 30 29 30 31 30 29 28 28 29 29 29 29 29 29 28 29 28 27 26 26 28 28 27 27 27 27 27 26 26 26 26 26 27 27 28 28 27 26 25 25 24 23 22 22 22 21 21 21 20 21 21 22 23 24 25
Wind_Speed
25 25 26 26 27 28 29 28 29 30 32 33 33 33 33 32 32 32 32 32 32 32 32 31 33 36 39 40 38 35 30 24 18 15 15 15 16 16 14 11 10 12 12 11 10 12 15 16 14 11 8 7 8 8 8 8 8 9 10 11 11 12 13 14 15 16 17 18 18 18 17 16 16 15 14 13 12 11 11 10 9 7 7 8 8
26 26 26 26 27 28 29 28 28 28 29 28 27 27 26 26 27 28 28 29 29 31 30 31 34 36 36 35 33 29 23 18 15 14 16 16 16 16 15 13 12 13 13 12 10 11 14 14 11 7 5 6 7 5 6 7 7 8 9 10 10 10 11 12 13 13 14 15 16 16 16 17 17 17 16 14 13 12 12 10 9 8 7 7 7
26 26 26 27 28 28 27 26 25 24 24 23 22 22 23 24 25 26 27 27 29 29 30 32 33 32 31 29 27 22 18 16 14 16 18 18 17 16 15 14 13 14 14 13 11 11 13 11 9 6 5 5 5 5 6 7 7 7 9 9 9 9 9 10 10 10 10 11 13 13 14 15 16 17 17 16 14 13 12 11 10 8 7 6 6
26 26 27 28 28 28 26 23 22 22 21 20 20 21 22 23 24 24 25 27 28 29 31 31 28 27 26 24 20 17 15 15 16 18 18 18 18 17 15 14 14 14 13 12 10 11 11 10 9 8 6 5 5 5 5 5 6 7 8 9 9 9 8 7 7 8 8 8 10 11 11 12 14 14 16 16 15 14 12 12 11 9 7 6 6
27 28 29 29 28 26 24 22 21 20 18 18 19 21 22 22 22 23 25 26 28 30 29 26 24 23 21 19 16 15 16 16 18 18 19 19 18 17 16 15 15 13 12 11 9 9 9 9 9 9 6 5 6 5 3 3 4 5 7 9 9 10 10 7 7 9 11 10 9 10 9 10 11 12 13 15 15 15 13 12 12 11 9 6 6
30 30 30 30 28 25 23 21 20 19 18 19 20 21 21 21 22 23 24 26 28 27 24 21 20 19 18 16 14 15 17 18 19 20 20 19 18 17 16 16 16 15 14 12 10 9 9 9 8 6 4 4 5 4 4 4 4 5 6 8 9 11 11 8 8 10 13 12 11 10 10 10 11 11 11 13 15 15 13 12 12 12 11 8 6
33 32 31 30 27 24 22 20 19 17 18 20 20 20 20 20 21 23 25 26 24 21 19 18 16 16 15 13 14 16 18 20 21 21 21 21 20 21 21 21 21 19 17 15 12 10 11 10 6 4 3 3 3 4 5 5 5 5 6 8 9 10 10 9 8 9 11 11 10 10 10 10 11 11 11 11 13 14 14 12 11 12 13 10 7
33 31 30 29 26 23 22 20 18 18 19 20 20 20 20 20 21 23 22 21 18 17 16 14 14 15 14 12 14 17 20 22 22 23 23 24 25 26 27 28 29 27 24 20 15 12 11 10 8 6 4 3 3 2 5 5 5 6 7 9 10 11 10 8 7 9 10 10 9 9 9 10 11 11 10 11 11 13 13 13 12 12 13 11 8
31 31 30 28 26 24 23 19 17 19 20 20 21 20 19 19 19 19 17 16 16 15 12 12 13 13 12 13 16 19 22 23 24 25 26 27 27 28 29 30 31 31 30 27 21 15 11 10 11 9 5 4 5 3 4 5 6 6 6 8 11 13 12 9 9 10 11 11 10 9 8 9 11 12 11 10 10 11 12 13 13 12 13 12 9
30 30 29 27 26 24 21 18 18 20 20 20 20 18 17 17 16 14 14 14 13 11 11 12 13 11 12 14 18 21 23 24 26 27 27 28 28 29 29 29 30 30 31 30 27 22 16 13 12 10 6 1 3 4 1 4 4 4 6 9 13 14 13 11 10 11 11 11 11 10 9 9 11 12 11 10 9 9 10 12 13 13 12 12 11
29 29 28 26 24 22 19 18 19 20 20 19 17 15 14 13 12 12 13 12 11 11 11 12 12 12 14 17 20 23 23 24 25 25 26 28 29 30 31 31 31 32 32 31 30 26 21 18 16 15 13 8 4 4 3 4 4 5 7 11 13 14 15 14 12 12 11 11 11 11 11 11 11 11 11 10 9 8 9 10 11 12 12 12 12
27 26 25 23 22 19 18 18 19 20 18 16 14 12 11 11 11 12 11 10 11 11 12 12 12 15 17 18 21 22 21 22 22 22 23 24 27 31 33 33 33 34 34 32 30 27 23 21 21 21 20 15 10 7 6 5 4 6 8 12 14 15 16 17 16 15 13 11 10 10 11 11 10 10 9 9 9 8 8 9 9 11 12 11 11
25 23 22 20 19 18 18 18 18 18 15 13 11 9 9 10 11 11 10 11 12 13 13 13 14 16 17 17 19 19 18 18 18 18 19 21 25 29 33 35 34 33 33 32 30 29 26 24 24 25 26 23 19 15 11 9 7 8 11 14 15 16 17 18 18 17 16 15 13 12 11 11 10 10 9 8 9 8 7 8 9 9 10 11 10
23 21 19 19 18 18 17 16 16 15 12 10 8 8 10 10 10 10 10 12 13 14 13 13 14 16 16 16 16 16 15 14 14 14 16 19 23 28 33 35 33 31 32 30 30 31 30 29 28 28 29 28 25 22 17 14 13 13 15 16 17 17 18 18 18 18 17 16 15 14 14 12 11 10 9 9 8 8 7 7 9 9 9 9 9
21 19 20 19 18 18 16 14 14 11 8 7 8 9 10 10 9 9 11 12 13 13 12 12 13 14 14 14 14 13 11 10 10 11 14 18 22 27 32 34 31 29 30 28 29 32 33 33 31 31 30 29 26 24 21 20 19 19 20 21 21 23 23 23 22 21 19 17 15 13 12 13 12 11 9 8 8 7 7 6 7 8 8 8 8
21 20 20 19 18 17 14 12 10 7 7 7 8 9 9 9 9 11 11 12 12 11 10 11 12 13 14 14 12 11 9 7 7 9 13 17 21 27 31 33 30 27 28 25 28 32 33 33 33 32 32 30 28 26 26 25 25 25 25 26 27 28 29 30 29 26 23 19 16 13 10 10 12 12 10 8 8 7 6 5 5 6 7 7 7
21 21 20 18 16 14 11 8 6 5 7 7 8 9 9 9 10 11 11 11 11 10 10 11 13 14 14 13 12 10 7 5 6 9 12 16 20 26 30 31 28 25 26 24 25 30 32 32 33 32 32 30 29 28 27 27 27 27 27 28 29 30 31 32 33 32 28 22 18 15 12 8 9 11 9 8 7 7 6 5 5 6 7 6 5
21 20 18 16 13 10 7 5 5 6 7 7 9 9 9 10 12 12 11 11 11 11 11 12 14 14 14 13 12 10 7 6 7 9 11 15 20 27 29 29 26 22 24 23 21 25 28 29 29 29 28 27 26 26 27 27 28 28 27 27 28 29 30 32 33 35 34 28 22 18 16 11 5 9 8 6 5 5 5 5 5 6 6 5 4
19 18 15 12 9 6 5 5 5 6 7 8 9 9 11 12 11 11 11 11 12 11 12 13 14 14 14 13 12 11 9 7 8 9 12 16 22 27 27 27 25 20 20 21 19 19 22 24 24 24 24 25 24 25 26 27 27 28 27 27 28 29 29 30 31 33 36 36 31 25 22 19 7 5 8 6 4 3 4 4 6 6 5 5 4
17 15 11 8 6 5 5 5 5 6 7 9 10 11 11 11 11 11 12 12 12 12 12 13 13 14 14 13 13 11 10 9 9 11 13 18 23 25 26 25 24 19 16 19 18 17 18 19 19 20 21 22 23 24 25 26 27 27 27 28 28 29 29 30 31 31 34 38 38 34 30 27 17 3 7 7 5 4 3 4 5 6 6 5 5
13 11 8 6 6 5 5 5 5 7 9 11 11 11 10 10 11 12 13 13 12 11 12 12 12 13 13 14 13 12 11 11 11 13 16 20 22 23 24 24 23 20 16 15 16 16 16 17 18 18 18 20 21 22 24 25 26 26 27 27 28 28 29 30 31 31 32 35 39 40 37 33 27 15 2 6 6 5 4 3 6 6 6 6 6
10 7 6 6 6 5 4 5 6 8 11 12 11 10 10 11 12 13 13 13 12 11 11 11 12 12 13 13 13 13 13 13 14 15 18 20 21 22 24 23 22 21 17 13 12 14 15 16 16 17 17 18 19 20 21 23 24 24 24 25 26 27 28 30 31 31 31 32 35 39 41 38 33 26 13 1 5 6 6 4 4 5 6 6 6
7 6 6 6 6 5 4 5 8 10 11 11 10 11 12 13 14 14 13 12 11 11 11 11 12 13 14 14 14 15 15 15 16 18 19 19 21 23 24 23 21 20 19 15 11 10 11 12 13 14 14 15 16 17 19 20 22 22 22 23 24 26 27 29 30 31 32 32 33 35 38 40 37 33 26 14 2 6 8 7 5 4 4 4 5
5 6 6 6 5 3 4 7 9 11 11 10 11 12 14 14 14 14 13 12 11 11 11 11 12 13 14 15 16 17 17 18 18 19 19 20 21 22 23 23 21 19 18 18 14 10 8 8 9 10 11 12 14 16 18 19 21 22 22 23 24 25 26 27 29 31 32 32 33 33 34 36 38 37 34 27 16 5 5 9 9 7 6 5 5
5 6 6 5 3 2 6 9 11 12 11 11 12 13 15 15 15 14 13 12 11 11 11 11 12 14 15 16 17 17 17 18 19 19 20 20 21 22 22 22 21 20 19 19 17 13 9 7 7 8 10 12 15 17 18 19 20 22 23 23 24 24 25 26 28 29 31 31 32 32 32 33 33 35 34 32 27 20 10 5 10 11 9 8 8
5 5 5 3 1 4 8 11 11 11 12 12 13 14 15 15 15 14 13 12 11 10 11 11 12 14 17 17 17 16 17 18 18 19 20 20 21 21 22 22 21 21 21 20 19 17 14 10 9 9 11 14 16 17 17 18 20 22 23 23 23 23 23 24 26 27 29 30 31 31 31 31 31 30 31 31 30 29 25 16 7 10 12 10 10
4 4 4 1 3 6 10 12 11 11 13 14 15 15 15 15 14 13 12 11 10 10 11 12 13 16 18 18 17 17 18 19 19 20 20 21 21 22 23 22 21 21 21 21 21 19 17 14 12 11 13 15 16 17 18 20 21 22 22 22 23 23 23 23 24 26 27 28 29 30 30 30 30 29 29 29 28 29 31 29 19 8 9 11 11
4 4 2 3 6 9 11 12 12 12 14 15 15 15 15 14 13 12 11 11 11 11 12 13 15 17 18 18 18 18 19 19 20 20 21 21 21 22 23 22 21 21 21 21 21 20 18 17 15 14 15 16 17 18 20 21 22 22 22 22 22 22 22 23 24 25 26 27 28 29 29 28 28 28 29 28 26 26 29 31 28 19 8 8 12
3 3 3 6 8 10 11 12 13 14 15 15 15 14 14 13 12 12 12 12 12 12 13 14 16 17 18 18 18 19 20 20 20 21 22 22 22 23 23 23 22 22 22 21 20 19 18 17 16 15 15 15 17 18 20 21 22 22 22 22 21 21 22 23 23 25 26 27 27 28 28 28 28 27 27 28 26 24 25 27 27 23 17 9 8
3 4 6 8 10 11 12 12 14 15 16 15 14 14 13 12 12 12 12 12 13 13 14 15 15 16 17 18 18 19 20 20 21 22 22 23 23 24 25 24 24 24 23 23 22 21 19 17 15 14 14 14 16 17 19 20 21 21 21 20 20 20 21 22 23 24 25 25 26 26 26 26 26 26 26 25 25 24 22 20 21 21 20 16 9
5 6 8 9 10 11 12 13 15 16 15 14 14 14 13 13 13 13 12 12 13 14 14 15 15 15 16 17 18 19 20 20 21 22 23 24 25 26 26 26 26 25 25 24 24 23 22 20 17 15 14 15 16 17 19 20 21 21 20 19 18 19 20 21 23 24 25 25 25 25 25 25 24 24 24 24 24 23 20 16 18 20 21 21 17
6 8 10 10 11 12 13 15 16 15 14 14 14 14 14 13 13 12 12 12 13 13 14 14 15 15 16 17 18 19 19 20 21 22 24 25 26 27 28 28 28 28 27 26 25 24 23 22 20 19 17 17 17 19 20 21 22 21 20 18 16 17 19 20 23 25 26 27 27 27 26 26 24 23 22 22 22 21 19 18 19 19 20 21 22
9 10 10 11 12 13 14 16 16 14 14 14 14 14 13 13 12 11 11 12 12 13 13 14 15 16 17 18 18 19 19 20 21 22 24 25 26 27 28 29 29 29 29 28 27 25 24 23 22 21 20 19 20 21 22 23 23 23 21 19 17 17 19 21 23 25 27 28 28 28 28 28 26 25 23 21 20 19 18 18 18 18 18 18 19
11 12 12 12 13 14 16 16 15 14 14 14 14 13 13 12 11 11 11 11 12 12 12 13 14 16 17 18 19 19 19 20 21 22 23 24 25 27 28 29 30 30 31 30 28 27 26 25 24 23 22 21 22 23 24 24 25 25 24 21 20 19 20 22 24 26 27 29 29 29 29 30 29 27 26 23 20 18 17 17 17 16 16 15 16
13 13 13 14 14 16 17 16 15 14 14 14 13 12 12 11 11 11 11 11 11 11 12 13 14 16 17 18 18 18 19 20 21 21 22 23 24 26 27 28 30 31 31 31 30 29 29 28 27 26 24 23 23 24 25 25 26 26 26 24 22 22 23 25 26 27 28 29 29 29 30 31 30 29 28 27 24 20 17 16 16 16 15 13 14
15 14 14 16 17 18 17 16 15 14 14 13 12 11 11 11 10 10 10 10 10 11 12 13 14 16 17 17 17 18 19 20 21 21 22 23 24 26 27 28 29 30 30 31 30 30 30 29 29 28 27 26 25 25 25 26 26 26 26 25 24 24 26 28 29 28 28 29 29 30 30 31 31 31 30 29 27 24 21 17 16 15 14 12 12
17 16 17 18 18 18 17 16 15 14 13 12 11 10 10 10 10 10 10 10 10 11 12 13 15 16 16 16 16 17 19 20 21 21 23 24 25 26 27 27 28 29 29 30 30 30 30 30 30 29 28 27 27 27 27 27 27 26 26 26 25 26 28 29 29 29 28 28 29 30 30 31 31 32 32 31 29 27 25 22 18 15 13 12 10
18 18 19 19 19 18 17 16 15 14 13 11 10 9 9 9 9 10 10 10 11 12 12 14 14 15 15 15 15 17 19 20 20 21 23 24 25 26 27 27 28 28 29 29 30 30 31 31 31 30 30 29 29 29 29 29 28 28 27 26 26 27 28 29 29 29 27 27 28 29 30 30 31 32 32 32 30 29 28 26 23 19 15 12 10
19 20 20 19 18 17 16 15 15 13 12 10 9 8 8 8 9 9 10 10 11 12 13 14 14 14 14 14 15 17 18 19 20 21 23 24 25 26 27 27 28 28 29 30 30 31 31 31 31 31 31 31 31 30 30 30 30 29 28 28 27 27 28 29 28 28 27 26 27 28 29 30 30 32 32 32 31 30 29 28 27 24 20 15 12
20 21 20 19 17 16 15 14 13 13 11 10 8 7 7 8 8 9 9 10 11 12 13 13 14 13 13 14 15 17 18 19 20 21 22 23 24 25 27 27 28 29 29 30 30 31 31 31 31 32 32 32 32 31 31 31 31 31 31 30 30 30 29 29 29 28 27 26 26 27 28 29 30 31 32 32 32 31 30 30 29 27 25 21 17
21 21 20 18 17 15 15 14 13 12 11 9 7 6 6 7 8 9 9 10 11 12 13 13 13 13 13 13 15 16 17 18 19 21 22 23 24 25 26 27 28 29 29 30 30 31 31 31 31 32 32 32 32 32 32 32 32 32 33 33 33 33 33 32 31 31 29 28 28 28 28 29 30 31 32 32 32 31 31 30 30 29 28 26 23
22 21 20 18 16 15 15 14 13 11 10 8 6 5 5 6 7 7 8 9 10 11 12 13 12 12 12 13 14 15 16 17 18 19 21 22 23 24 25 26 28 28 29 30 30 31 31 31 31 31 32 32 33 32 32 32 32 33 33 34 34 35 35 34 34 33 32 31 30 30 30 31 31 32 32 32 32 32 31 31 30 30 29 27 26
22 21 20 18 16 16 15 14 13 11 10 7 5 4 4 4 5 6 7 8 9 11 12 12 12 11 11 11 13 14 15 16 17 18 19 20 22 23 24 26 27 28 28 29 30 30 30 30 30 31 31 32 32 32 32 32 32 32 33 33 34 34 35 34 34 34 33 32 32 31 31 32 32 33 33 33 33 33 32 32 31 30 29 28 27
23 22 20 17 16 15 15 14 13 12 10 7 5 3 2 2 3 4 6 7 8 10 11 12 12 11 10 11 12 13 14 15 16 17 18 19 20 21 23 25 26 27 27 28 28 29 29 29 29 30 30 31 32 32 32 32 32 33 33 33 33 33 34 34 34 34 34 33 33 33 33 33 33 33 33 33 33 33 33 33 33 32 31 30 28
22 22 20 18 16 14 13 13 12 12 10 8 6 4 3 1 1 2 4 5 7 8 10 11 11 11 10 10 12 13 14 15 16 16 17 18 19 19 21 23 25 25 26 26 27 27 27 28 28 28 29 30 31 31 32 33 33 33 33 33 33 33 33 33 34 34 34 34 34 34 34 34 34 34 34 34 34 34 34 33 33 33 32 32 31
22 21 20 19 16 13 11 10 12 12 11 10 8 6 4 3 1 1 2 3 5 7 8 10 11 10 10 10 11 12 13 14 15 16 17 17 18 18 20 21 23 24 25 25 25 25 25 26 26 27 28 29 29 30 31 32 32 32 32 32 32 32 33 33 33 33 33 33 33 33 34 34 34 34 34 34 34 34 34 34 33 33 33 33 32
22 21 20 19 17 15 11 10 12 13 12 12 10 8 6 5 4 3 1 2 3 5 6 8 9 10 9 10 11 12 13 14 15 16 16 17 17 18 19 20 22 22 23 24 24 24 24 24 25 25 26 27 28 29 29 30 30 30 30 31 32 32 33 33 33 33 33 33 33 33 33 33 34 34 34 34 34 34 34 34 34 34 34 33 33
23 22 20 19 17 16 13 10 12 13 13 13 12 10 9 7 6 5 4 3 3 3 4 6 7 8 8 8 10 11 12 13 14 15 16 16 17 17 18 20 21 22 22 23 24 23 23 24 23 23 24 25 26 28 29 29 30 30 30 31 32 33 33 34 34 34 34 34 34 34 34 34 35 35 35 35 35 35 35 35 36 36 35 35 35
23 23 22 20 18 17 15 12 12 14 15 14 14 13 11 9 8 7 6 5 5 4 4 4 5 7 7 7 9 11 12 13 14 14 15 16 16 17 18 19 20 21 22 23 23 23 23 23 23 23 24 24 26 27 29 29 30 30 31 31 32 33 34 34 35 35 36 36 36 36 36 36 37 36 36 36 36 36 36 36 37 37 37 37 37
24 24 24 22 20 19 19 16 14 15 16 16 15 15 13 11 10 8 8 8 7 6 5 5 4 5 5 6 8 10 11 11 12 14 15 15 16 17 17 18 20 21 22 22 23 23 23 23 23 24 24 25 26 27 28 30 31 31 32 32 33 34 34 35 36 36 37 37 37 37 38 38 38 38 38 37 37 37 37 37 37 38 39 39 39
24 24 24 23 21 20 20 19 17 16 17 17 16 15 14 13 12 10 10 10 9 8 7 6 5 5 5 6 7 9 10 10 11 12 14 15 15 16 17 18 19 20 21 22 22 23 24 24 24 25 26 26 27 28 29 30 31 32 33 34 34 35 36 37 38 38 38 38 39 39 40 40 40 40 40 39 39 38 38 38 38 39 39 40 41
Wind_Direction
308 305 301 296 291 289 288 287 286 286 286 288 291 295 298 299 302 304 307 312 318 322 322 320 318 318 319 322 325 331 339 349 358 4 16 31 42 41 37 35 23 16 13 8 7 7 11 14 12 12 29 46 50 49 51 54 54 51 47 45 47 49 47 43 41 41 41 40 40 37 33 29 26 23 18 14 12 8 3 356 348 343 343 341 343
307 303 298 293 291 291 292 294 296 295 294 296 299 302 303 304 307 310 314 320 325 327 324 321 318 318 320 324 330 339 352 6 14 25 37 43 43 36 29 24 17 14 11 8 3 1 5 10 8 12 42 47 39 40 47 44 45 47 38 36 38 42 44 42 40 39 39 37 35 35 33 28 25 23 19 16 13 11 8 1 353 348 349 348 346
306 301 297 294 294 295 298 300 299 299 299 300 304 305 305 307 310 313 318 323 325 324 322 320 320 322 326 331 340 355 12 25 36 44 47 45 40 34 27 18 9 5 4 6 5 1 3 2 353 355 29 43 27 23 31 26 27 29 23 23 26 28 31 33 35 35 34 32 30 31 31 28 24 20 17 16 11 9 9 6 359 354 354 352 349
305 301 299 298 298 298 301 301 299 300 300 303 306 306 305 307 312 318 323 324 323 321 320 323 326 330 334 341 356 16 33 44 51 50 46 40 36 30 22 12 5 -0 359 4 6 2 356 346 341 350 18 36 20 15 13 21 29 19 10 8 7 8 9 12 16 15 11 12 19 22 24 24 21 17 13 12 10 7 7 8 5 359 355 353 351
305 303 301 300 299 298 300 300 300 299 302 307 309 307 307 311 318 324 324 322 320 320 324 331 335 338 344 357 17 38 51 54 52 46 40 36 32 28 21 14 10 8 6 7 6 359 347 339 346 357 14 34 18 6 349 25 41 14 5 -0 354 353 353 354 354 354 351 353 1 7 11 12 13 11 9 7 7 6 6 7 8 6 359 354 354
305 304 302 300 299 300 301 302 302 303 308 311 310 310 312 316 322 323 322 320 319 324 333 339 341 347 358 14 38 54 57 54 48 43 40 38 36 33 29 25 22 19 14 11 8 355 341 340 356 1 8 34 9 345 342 4 14 359 4 355 345 344 345 348 348 344 341 343 346 348 355 359 359 3 4 3 3 5 6 4 7 11 5 357 353
303 302 301 301 301 304 305 306 305 307 310 311 312 312 313 316 317 317 318 320 326 336 343 346 352 1 11 31 53 60 56 52 49 48 49 48 46 44 41 39 35 31 24 16 7 350 340 340 347 333 330 16 346 343 342 339 354 355 2 352 343 339 339 346 340 331 330 335 336 334 340 345 346 352 357 358 359 2 6 5 3 12 10 2 356
302 301 300 301 303 306 308 307 303 305 311 313 315 314 314 315 315 316 321 329 340 348 351 358 7 10 22 48 61 61 58 58 59 59 59 56 53 49 44 41 38 36 32 28 18 356 341 342 348 332 299 261 267 322 319 330 15 12 7 355 346 341 338 343 329 314 314 318 323 323 328 336 338 342 348 351 356 357 2 6 2 9 12 7 3
302 300 300 301 305 308 309 307 302 307 314 317 317 319 320 320 320 325 335 346 353 358 7 15 14 18 40 61 66 66 68 70 69 66 62 58 53 47 42 38 35 33 30 29 28 19 1 358 3 356 326 253 236 246 302 356 27 14 6 355 352 350 344 344 338 324 313 304 304 310 317 328 333 335 337 340 351 353 357 5 5 6 10 9 8
301 300 301 304 307 308 308 307 308 313 318 320 323 326 327 328 332 343 354 357 4 17 25 21 21 35 62 71 74 79 80 78 73 67 62 57 51 46 41 37 34 32 28 26 28 33 34 30 27 27 30 45 208 212 309 27 29 8 7 10 6 1 353 346 345 342 329 311 301 301 306 319 327 327 327 330 340 348 351 1 6 6 8 8 8
301 301 304 308 308 308 308 309 313 317 320 324 329 333 335 341 350 -0 3 10 27 36 32 30 42 62 76 78 85 90 87 81 74 67 60 54 47 42 39 35 32 29 28 26 27 36 46 47 48 56 60 70 108 134 102 67 44 23 22 21 13 3 359 354 349 346 337 323 307 301 301 310 318 318 319 322 328 338 348 355 2 7 8 6 7
304 305 308 309 308 311 314 314 316 318 323 329 335 342 350 357 3 8 16 35 49 46 44 51 66 77 79 83 94 98 90 83 75 65 57 49 42 37 34 33 30 27 26 26 29 38 49 54 56 62 66 71 79 89 88 72 43 23 18 16 7 357 356 354 350 346 339 331 317 306 303 304 309 308 311 317 321 327 338 347 353 4 8 6 4
308 309 310 310 312 315 316 316 316 320 328 336 346 359 7 8 10 19 39 58 60 57 60 69 78 81 81 88 100 104 96 86 75 62 51 41 35 31 30 30 28 26 25 28 35 43 53 58 61 65 68 71 73 74 72 61 45 25 15 9 1 354 351 350 348 343 337 330 322 313 307 305 303 300 300 308 313 313 320 333 342 354 6 6 4
311 311 311 313 318 318 317 315 316 324 336 350 6 14 13 14 22 40 63 69 66 64 69 77 81 82 82 89 103 111 103 89 72 56 43 32 27 26 27 28 29 29 28 35 43 50 57 62 64 67 69 71 72 72 68 59 48 34 24 17 13 8 4 2 358 353 348 339 329 317 308 303 299 295 292 295 298 302 306 317 330 343 357 1 2
312 312 314 319 321 320 318 316 321 334 351 10 19 18 19 26 41 63 73 72 69 67 72 79 81 82 82 90 105 113 106 88 66 45 33 24 21 22 24 27 29 32 34 44 52 53 58 62 65 66 67 68 69 68 64 60 55 49 44 39 36 32 28 23 17 12 6 0 352 337 317 300 289 286 284 287 289 291 298 306 318 330 342 350 357
313 315 320 323 322 320 319 320 331 351 13 23 22 25 32 45 65 77 76 73 70 69 76 79 79 78 82 93 108 116 109 88 59 37 26 20 18 19 21 25 28 35 39 51 58 55 57 61 64 66 67 68 68 67 65 63 59 55 50 46 42 39 37 34 30 24 17 11 6 -0 344 306 281 274 274 279 283 285 291 301 307 317 328 335 348
316 321 324 324 321 320 323 333 354 17 26 27 32 40 50 67 79 80 77 74 71 74 81 80 78 76 80 90 102 115 114 90 55 37 24 18 17 16 18 21 25 37 45 55 61 58 60 62 65 67 67 68 65 63 59 56 52 48 44 41 37 36 35 35 33 31 27 20 14 10 4 333 275 258 261 266 272 279 284 300 304 307 317 321 333
320 325 326 324 323 326 338 1 23 28 32 40 49 58 72 82 84 81 79 77 77 82 84 81 78 76 78 82 87 95 94 77 52 34 24 19 15 13 13 17 24 38 50 59 63 60 63 65 66 65 62 60 56 53 48 44 42 40 38 36 33 33 32 32 32 32 31 28 24 21 18 7 297 239 237 247 259 271 279 302 312 305 310 315 311
325 329 328 327 331 344 9 28 32 35 48 61 68 79 87 88 84 81 82 84 87 88 85 82 79 74 74 77 77 77 72 62 43 31 25 19 12 9 10 15 25 38 51 60 63 59 61 64 63 59 53 49 46 43 38 35 33 31 31 29 28 30 31 30 29 29 30 30 29 28 27 26 18 218 211 218 231 257 282 301 314 313 310 314 303
330 331 331 338 352 11 23 30 39 54 70 79 85 93 92 86 81 82 87 91 91 88 86 84 78 72 70 70 68 65 59 48 36 30 22 14 9 8 10 17 28 39 50 56 59 58 58 58 57 53 47 42 39 35 29 25 24 22 22 22 23 25 28 29 27 27 28 30 31 30 31 34 38 72 195 199 206 229 268 309 323 322 319 315 304
332 332 341 357 8 16 21 37 60 77 86 93 97 97 91 84 83 86 92 92 91 87 86 84 74 66 64 61 58 53 47 39 31 24 16 11 10 11 15 20 29 38 47 52 54 55 54 51 49 46 43 38 33 29 25 21 18 16 16 17 19 21 25 27 27 26 26 29 31 32 32 34 40 45 93 193 201 221 236 313 333 323 316 310 303
330 335 352 1 4 8 27 60 84 95 100 102 102 98 91 87 88 92 95 92 89 87 85 78 63 55 52 49 46 41 35 31 24 19 16 16 19 21 22 25 31 37 44 47 49 51 51 50 47 45 42 37 32 28 25 21 18 14 13 14 15 19 24 27 27 26 26 27 29 32 33 35 39 42 41 64 219 226 226 254 302 303 306 308 305
326 340 353 354 358 8 52 87 102 108 109 106 101 97 94 94 95 96 95 92 89 86 78 65 51 43 38 37 36 33 30 27 24 22 22 25 29 30 29 30 34 37 40 41 42 44 46 48 47 45 40 35 31 27 22 20 18 16 17 17 16 20 25 28 29 28 27 27 28 30 33 36 39 41 40 36 6 237 231 237 250 265 288 310 318
324 343 348 349 354 21 90 108 116 117 112 105 100 99 100 100 99 97 94 91 86 78 64 50 39 32 32 34 33 33 33 31 28 26 27 30 34 34 33 34 36 38 38 38 38 39 39 38 38 37 33 27 22 18 19 20 21 22 25 25 23 24 27 30 32 32 31 30 29 29 30 34 37 39 39 38 34 11 258 239 239 247 258 278 308
324 342 343 342 353 86 114 121 124 120 112 104 103 103 104 103 100 97 92 86 76 63 50 39 31 30 33 34 35 37 36 32 29 29 30 32 34 33 33 35 38 40 41 41 39 40 38 31 25 24 21 17 15 18 24 26 27 28 29 31 30 28 28 29 31 32 33 33 33 32 30 30 33 36 37 37 36 32 15 288 246 242 247 260 279
324 338 332 332 57 128 127 128 128 121 113 107 107 107 106 104 99 95 87 77 65 53 43 36 34 36 37 37 38 38 35 32 31 32 32 32 33 32 31 32 37 42 45 45 44 43 42 37 28 20 16 18 23 28 30 30 31 30 30 32 33 32 31 29 29 30 31 33 34 34 33 31 30 32 33 33 35 36 31 19 327 256 247 254 266
321 324 312 323 132 140 136 132 128 120 115 112 110 108 107 103 98 90 80 69 59 50 44 42 42 42 40 40 41 39 36 35 35 34 33 33 32 29 28 29 35 43 45 45 45 44 45 44 39 33 30 30 33 33 32 31 32 30 29 31 33 33 33 32 31 31 31 33 33 34 34 33 31 30 29 29 31 33 33 30 21 347 264 254 261
311 301 273 146 144 145 140 135 129 121 119 115 112 109 106 102 95 85 75 67 59 53 49 48 48 45 42 40 40 39 39 38 37 36 35 34 31 28 29 32 38 44 45 45 44 43 44 44 43 41 39 37 35 32 31 31 30 30 28 28 31 34 35 36 36 35 34 33 34 34 34 34 32 30 28 27 29 29 29 30 29 24 355 273 258
284 263 183 146 151 148 142 136 129 126 121 117 112 109 106 101 93 84 76 69 62 56 52 52 50 45 41 39 38 39 40 40 40 39 37 35 34 33 34 36 38 40 40 39 39 41 41 41 41 40 40 38 35 30 28 26 25 25 26 27 28 31 33 34 35 35 36 34 33 33 33 33 31 31 29 28 29 26 24 28 29 26 18 352 283
251 209 159 152 155 150 145 138 132 129 125 118 114 111 106 100 92 84 78 71 64 58 55 53 50 44 41 40 41 41 41 43 42 40 38 38 38 37 37 37 36 35 34 33 35 37 39 40 39 36 33 31 30 26 22 20 17 15 17 22 24 26 27 27 28 29 31 31 30 29 30 30 29 29 29 29 30 27 25 27 26 24 23 19 355
218 176 157 157 156 152 147 140 135 131 125 120 115 111 105 99 92 85 79 73 65 60 56 53 50 46 44 44 45 45 44 45 44 42 40 41 40 39 38 36 35 34 33 32 33 35 37 39 40 37 32 27 24 22 17 16 14 9 8 13 18 20 22 21 20 21 22 22 23 24 23 25 26 25 24 26 29 30 29 25 22 23 26 28 24
192 165 161 160 156 153 148 140 135 131 125 120 115 111 105 99 92 85 80 73 65 61 57 54 53 51 50 50 50 49 48 48 47 45 43 43 41 39 38 37 35 34 34 32 32 33 35 35 36 34 32 29 25 22 18 16 15 13 10 11 14 17 18 18 16 16 15 14 15 16 17 19 21 22 21 21 26 29 27 24 22 22 24 26 27
174 163 167 162 157 154 147 140 135 131 126 121 116 111 105 98 91 85 78 72 66 62 58 56 56 55 55 55 55 53 51 50 49 46 44 42 41 39 39 38 36 35 35 34 33 33 32 31 30 27 25 23 22 21 20 19 20 19 17 16 16 17 18 19 16 14 12 11 11 11 14 16 17 18 18 18 20 22 21 23 23 21 23 22 19
168 167 169 163 159 153 146 141 137 134 129 124 118 111 104 97 89 82 75 72 68 64 59 58 59 58 57 56 56 55 53 51 49 46 44 42 41 40 40 38 37 36 36 36 37 36 35 32 29 26 25 25 26 26 26 24 23 22 21 21 21 22 23 21 17 13 12 10 9 9 12 15 16 16 15 16 17 16 15 17 19 19 22 22 14
169 172 169 162 159 153 148 143 140 136 131 125 118 111 103 96 87 80 74 72 70 65 59 58 59 58 57 56 55 54 52 51 49 46 44 42 41 40 40 38 36 36 36 36 37 38 38 36 33 31 30 30 29 29 28 26 23 21 22 23 24 25 24 21 17 13 11 10 10 9 10 12 14 14 14 14 15 16 14 11 12 15 20 21 15
171 175 169 163 159 153 149 146 144 139 132 126 119 111 103 95 87 79 74 72 70 63 59 58 58 56 54 53 52 50 50 50 48 46 44 42 40 40 39 38 36 36 36 36 36 37 37 37 36 34 32 29 26 25 25 25 25 22 21 22 23 21 17 14 12 10 8 10 10 9 9 9 10 11 12 12 13 14 15 13 8 9 14 17 16
173 174 167 163 159 155 153 150 147 141 134 128 120 110 101 94 86 79 73 71 66 61 57 56 57 55 52 49 47 45 46 48 46 44 42 40 39 39 39 37 36 35 35 35 35 35 36 36 36 35 34 31 27 25 24 25 26 24 20 18 16 12 9 8 8 7 5 6 8 9 8 8 8 8 10 10 10 10 12 12 11 8 5 4 11
175 170 166 163 159 157 155 153 148 142 137 130 121 109 98 90 82 77 72 67 61 58 55 54 55 54 50 45 42 40 41 43 43 41 40 39 38 38 38 37 35 34 34 34 34 34 34 34 34 34 33 32 29 27 25 24 24 23 20 17 13 8 7 6 6 6 5 4 5 7 7 7 7 7 7 7 7 6 7 7 9 9 5 355 352
174 168 165 162 160 159 157 155 149 143 139 133 124 110 96 86 77 73 69 63 58 54 52 51 51 50 46 41 37 37 38 38 37 38 37 37 36 36 36 35 34 33 32 32 32 32 31 31 30 30 29 29 28 26 25 24 23 21 19 17 15 12 10 10 9 8 6 4 3 4 5 5 5 5 6 6 5 4 3 3 4 5 5 -0 347
174 167 164 161 159 160 159 157 151 146 144 138 128 111 95 82 72 66 62 58 55 53 51 50 48 46 42 37 35 35 34 34 33 34 35 35 35 35 34 33 32 31 31 31 30 29 29 28 27 26 26 25 24 24 24 23 21 20 18 16 15 15 14 13 12 11 9 6 4 3 4 3 3 4 4 4 3 2 1 -0 0 1 1 360 353
173 167 163 160 159 160 160 159 154 152 152 146 136 117 97 83 72 63 57 54 52 52 51 50 47 42 36 32 33 33 32 31 30 32 33 34 34 34 33 32 31 29 29 29 28 28 27 26 25 23 23 22 21 21 20 20 19 18 17 15 14 14 14 13 13 12 10 8 5 3 2 2 1 2 2 2 2 1 -0 359 358 358 358 357 354
173 167 163 160 160 161 162 163 162 163 164 158 146 125 101 87 76 64 56 51 51 52 52 51 47 41 33 27 29 30 30 29 29 31 32 33 33 34 33 31 30 28 28 28 27 26 25 24 23 22 20 19 19 18 17 17 17 17 16 15 14 12 12 12 11 10 9 8 5 3 1 360 359 359 359 359 359 359 358 357 356 356 356 355 353
173 170 166 163 163 164 166 168 172 176 176 171 159 135 109 88 75 63 53 49 50 52 53 52 48 41 30 23 25 27 27 26 27 28 30 31 31 32 32 31 29 27 26 27 26 24 23 21 21 20 18 17 16 15 14 14 15 15 15 14 13 12 10 10 9 8 7 6 4 2 -0 358 357 356 356 355 355 356 356 355 355 354 353 353 352
176 173 171 168 167 168 171 174 180 185 187 183 176 160 133 93 72 58 50 47 48 50 51 51 48 40 27 18 20 24 24 23 23 24 26 28 29 30 31 29 27 25 24 25 25 24 22 20 19 17 16 16 14 12 11 12 13 13 13 13 12 11 9 8 8 7 5 4 3 1 359 357 355 354 353 352 352 352 352 353 352 351 350 350 350
180 177 176 176 176 175 176 181 186 191 195 194 191 190 183 172 61 49 45 44 44 46 49 50 47 40 25 14 16 20 20 18 18 19 21 23 24 24 24 23 22 21 21 23 23 22 21 19 17 15 15 14 12 10 10 10 10 10 10 10 9 9 8 7 6 6 5 3 2 360 358 356 354 353 352 351 350 349 349 350 350 349 349 348 348
184 181 180 183 185 184 183 186 192 197 203 203 205 207 207 221 243 349 27 34 36 39 44 47 47 40 25 11 11 16 16 13 13 13 15 17 18 16 15 16 18 17 17 19 20 21 21 19 16 14 14 13 11 9 9 9 8 8 8 8 8 8 7 6 5 5 4 3 2 -0 358 355 353 352 351 350 349 348 348 347 347 347 347 346 345
188 185 184 187 190 190 188 192 197 202 208 211 214 216 220 230 240 256 290 347 15 29 37 44 46 40 27 10 5 10 13 11 9 8 10 12 13 12 13 14 15 13 13 15 16 17 19 19 16 13 12 11 10 9 9 9 8 7 7 7 7 7 7 6 5 4 3 3 2 0 358 356 354 352 351 350 350 349 348 347 346 345 344 343 343
190 189 188 190 193 194 194 198 203 206 211 216 220 223 228 235 242 257 272 289 322 358 21 37 44 40 28 10 1 4 11 11 6 4 6 8 9 9 10 11 11 10 9 10 12 12 15 17 15 12 11 9 8 7 7 7 7 6 5 5 6 5 5 4 4 3 2 2 1 359 358 356 356 354 353 351 350 350 349 347 345 344 343 341 340
193 192 192 194 196 197 199 204 208 210 212 216 221 226 232 238 245 258 271 282 294 315 343 11 32 37 27 10 359 358 4 10 7 1 0 4 6 5 5 6 7 6 5 6 7 8 9 12 12 10 9 7 6 4 4 4 4 4 4 3 4 4 4 3 2 2 1 0 359 358 356 355 355 354 353 352 351 350 348 347 345 343 342 340 339
197 197 197 198 200 200 203 207 211 214 215 218 222 227 234 241 246 253 265 276 284 294 313 336 358 19 17 4 355 351 355 5 5 358 354 358 2 2 1 2 3 2 1 2 4 4 5 6 7 8 7 5 3 2 0 0 1 1 1 1 1 1 1 1 0 360 359 359 358 356 355 353 353 353 352 352 350 349 348 346 345 343 341 340 338
200 200 201 203 205 206 207 210 215 218 220 223 226 231 238 244 248 253 261 268 276 283 294 311 328 345 351 347 342 338 342 353 359 352 347 350 355 357 356 356 358 359 358 359 0 0 -0 1 2 4 4 2 0 359 358 357 357 357 357 357 358 358 358 358 358 358 357 356 356 355 354 353 351 351 350 349 348 348 347 346 345 343 341 339 337